Date,TemperatureHighF,TemperatureAvgF,TemperatureLowF,DewpointHighF,DewpointAvgF,DewpointLowF,HumidityHigh,HumidityAvg,HumidityLow,PressureMaxIn,PressureMinIn,WindSpeedMaxMPH,WindSpeedAvgMPH,GustSpeedMaxMPH,PrecipitationSumIn
2013-1-1,14.0,9.3,5.0,4.0,-2.3,-6.0,91,59,44,0.00,40.00,12,-7,26,0.00
2013-1-2,17.0,8.5,3.0,0.0,-3.8,-8.0,68,57,44,0.00,40.00,14,-23,23,0.00
2013-1-3,33.0,16.8,3.0,-3.0,-6.3,-10.0,59,37,19,0.00,40.00,11,-10,17,0.00
2013-1-4,42.0,27.1,16.0,14.0,6.8,-2.0,52,42,31,0.00,40.00,8,-38,12,0.00
2013-1-5,31.0,24.2,15.0,6.0,0.7,-5.0,40,35,26,0.00,40.00,14,5,30,0.00
2013-1-6,46.0,33.7,24.0,2.0,-4.7,-14.0,28,18,14,0.00,40.00,9,-53,21,0.00
2013-1-7,45.0,33.9,28.0,7.0,1.1,-5.0,29,24,19,0.00,40.00,16,-9,35,0.00
2013-1-8,30.0,26.6,23.0,17.0,12.0,-3.0,66,55,24,0.00,40.00,17,8,35,0.00
2013-1-9,49.0,37.1,27.0,19.0,13.1,5.0,54,37,27,0.00,40.00,9,4,22,0.00
2013-1-10,43.0,35.1,28.0,11.0,6.7,2.0,41,30,25,0.00,40.00,7,3,15,0.00
2013-1-11,31.0,14.7,2.0,17.0,2.1,-7.0,85,58,36,0.00,40.00,17,-33,40,0.00
2013-1-12,10.0,0.5,-11.0,-6.0,-9.1,-14.0,88,64,44,0.00,40.00,14,5,30,0.00
2013-1-13,3.0,-3.6,-9.0,-1.0,-6.7,-12.0,89,86,78,0.00,40.00,6,-39,11,0.00
2013-1-14,9.0,-1.1,-9.0,0.0,-8.8,-14.0,89,70,50,0.00,40.00,10,4,29,0.00
2013-1-15,26.0,15.0,-2.0,13.0,1.6,-13.0,60,54,48,0.00,40.00,16,6,29,0.00
2013-1-16,40.0,27.9,21.0,20.0,15.0,10.0,71,58,41,0.00,40.00,9,4,21,0.00
2013-1-17,42.0,29.9,20.0,18.0,11.8,5.0,65,47,33,0.00,40.00,9,-11,26,0.00
2013-1-18,36.0,30.8,28.0,9.0,6.4,4.0,38,35,32,0.00,40.00,21,11,39,0.00
2013-1-19,40.0,30.4,25.0,10.0,5.2,2.0,40,34,26,0.00,40.00,16,6,42,0.00
2013-1-20,36.0,29.1,24.0,9.0,5.0,1.0,40,35,29,0.00,40.00,11,6,32,0.00
2013-1-21,34.0,27.9,23.0,12.0,6.7,3.0,44,40,34,0.00,40.00,18,-4,36,0.00
2013-1-22,41.0,35.3,30.0,7.0,3.1,-1.0,33,25,18,0.00,40.00,19,12,50,0.00
2013-1-23,50.0,40.9,36.0,11.0,3.2,-4.0,24,20,16,0.00,40.00,14,-20,35,0.00
2013-1-24,37.0,34.1,31.0,6.0,3.3,1.0,28,26,24,0.00,40.00,12,5,31,0.00
2013-1-25,40.0,36.2,34.0,27.0,25.7,25.0,69,65,55,0.00,40.00,17,6,34,0.00
2013-1-26,43.0,34.9,28.0,28.0,24.7,22.0,95,67,48,0.00,40.00,11,-11,22,0.00
2013-1-27,40.0,32.1,26.0,29.0,20.6,10.0,95,63,41,0.00,40.00,15,4,32,0.00
2013-1-28,39.0,27.2,15.0,21.0,14.2,8.0,93,60,39,0.00,40.00,9,4,20,0.00
2013-1-29,16.0,8.6,1.0,13.0,-2.9,-11.0,92,60,40,0.00,40.00,12,6,26,0.00
2013-1-30,19.0,12.0,3.0,12.0,2.9,-10.0,87,66,54,0.00,40.00,19,10,47,0.00
2013-1-31,25.0,22.8,19.0,13.0,10.8,8.0,72,59,51,0.00,40.00,18,10,49,0.00
2013-2-1,29.0,23.8,22.0,15.0,11.8,9.0,69,59,53,0.00,40.00,18,10,46,0.00
2013-2-2,35.0,27.2,21.0,11.0,8.2,4.0,60,45,30,0.00,40.00,16,-6,40,0.00
2013-2-3,40.0,30.3,23.0,4.0,-0.3,-4.0,39,27,16,0.00,40.00,11,-51,22,0.00
2013-2-4,35.0,28.1,23.0,10.0,4.3,0.0,47,35,28,0.00,40.00,17,9,41,0.00
2013-2-5,40.0,32.3,25.0,22.0,16.2,10.0,58,50,46,0.00,40.00,19,-20,32,0.00
2013-2-6,36.0,30.4,20.0,24.0,17.9,14.0,93,60,48,0.00,40.00,11,-92,18,0.00
2013-2-7,38.0,25.3,14.0,14.0,-0.1,-11.0,78,38,17,0.00,40.00,9,3,21,0.00
2013-2-8,39.0,28.9,23.0,15.0,-1.5,-12.0,61,27,19,0.00,40.00,8,-24,18,0.00
2013-2-9,28.0,21.6,14.0,19.0,13.6,4.0,93,71,58,0.00,40.00,9,-38,21,0.00
2013-2-10,19.0,12.9,5.0,12.0,5.9,1.0,90,74,49,0.00,40.00,13,-37,32,0.00
2013-2-11,19.0,9.5,2.0,13.0,5.5,-1.0,90,83,67,0.00,40.00,8,-26,19,0.00
2013-2-12,29.0,16.2,7.0,4.0,-0.9,-8.0,67,48,28,0.00,40.00,14,7,30,0.00
2013-2-13,27.0,19.5,14.0,12.0,8.8,4.0,65,62,52,0.00,40.00,15,-40,37,0.00
2013-2-14,26.0,16.6,7.0,14.0,9.6,5.0,91,74,51,0.00,40.00,14,6,34,0.00
2013-2-15,25.0,16.5,5.0,11.0,6.6,2.0,90,66,40,0.00,40.00,16,-7,39,0.00
2013-2-16,34.0,25.7,19.0,14.0,9.6,6.0,66,51,39,0.00,40.00,17,-46,39,0.00
2013-2-17,40.0,29.9,18.0,10.0,4.5,1.0,63,35,22,0.00,40.00,17,7,39,0.00
2013-2-18,21.0,15.6,11.0,6.0,2.1,-5.0,67,54,37,0.00,40.00,16,-87,28,0.00
2013-2-19,37.0,24.5,13.0,6.0,-3.0,-13.0,56,31,18,0.00,40.00,14,4,28,0.00
2013-2-20,34.0,22.3,12.0,14.0,9.1,4.0,93,59,38,0.00,40.00,7,-56,10,0.00
2013-2-21,23.0,13.4,9.0,15.0,10.5,6.0,93,87,69,0.00,40.00,5,-26,10,0.00
2013-2-22,26.0,15.5,8.0,14.0,4.3,-3.0,89,61,46,0.00,40.00,20,-9,47,0.00
2013-2-23,31.0,20.0,11.0,14.0,7.6,-1.0,88,58,45,0.00,40.00,20,-33,38,0.00
2013-2-24,16.0,13.2,7.0,14.0,11.2,4.0,93,91,85,0.00,40.00,13,-24,25,0.00
2013-2-25,33.0,20.0,7.0,13.0,5.6,2.0,83,54,38,0.00,40.00,10,-9,23,0.00
2013-2-26,24.0,16.9,8.0,16.0,10.4,5.0,91,76,48,0.00,40.00,14,-24,27,0.00
2013-2-27,24.0,13.2,6.0,6.0,0.4,-8.0,82,57,39,0.00,40.00,14,-80,25,0.00
2013-2-28,26.0,17.3,10.0,8.0,3.3,-4.0,60,53,43,0.00,40.00,16,-35,34,0.00
2013-3-1,35.0,25.9,18.0,19.0,12.3,6.0,71,56,43,0.00,40.00,22,-16,37,0.00
2013-3-2,40.0,32.9,27.0,22.0,19.0,16.0,72,57,43,0.00,40.00,16,9,34,0.00
2013-3-3,40.0,34.4,29.0,25.0,18.5,12.0,79,53,40,0.00,40.00,19,8,45,0.00
2013-3-4,35.0,21.0,10.0,24.0,14.2,0.0,95,75,49,0.00,40.00,15,-37,32,0.00
2013-3-5,43.0,26.4,9.0,2.0,-3.1,-9.0,68,31,16,0.00,40.00,11,-10,28,0.00
2013-3-6,50.0,38.1,28.0,15.0,7.8,-8.0,34,28,19,0.00,40.00,9,-24,25,0.00
2013-3-7,47.0,38.5,28.0,18.0,13.4,9.0,53,36,27,0.00,40.00,14,-9,32,0.00
2013-3-8,46.0,34.2,24.0,25.0,17.4,10.0,93,52,37,0.00,40.00,6,-39,12,0.00
2013-3-9,26.0,21.4,8.0,24.0,18.8,4.0,95,89,80,0.00,40.00,14,5,24,0.00
2013-3-10,37.0,22.5,7.0,16.0,8.7,2.0,80,57,37,0.00,40.00,16,7,32,0.00
2013-3-11,33.0,26.0,19.0,21.0,14.4,9.0,94,62,50,0.00,40.00,17,10,40,0.00
2013-3-12,37.0,25.8,15.0,24.0,17.2,13.0,94,72,46,0.00,40.00,14,-8,35,0.00
2013-3-13,46.0,37.0,31.0,22.0,17.8,14.0,57,46,30,0.00,40.00,17,-62,38,0.00
2013-3-14,53.0,42.7,36.0,19.0,15.9,13.0,45,34,24,0.00,40.00,16,-63,29,0.00
2013-3-15,55.0,44.2,35.0,23.0,19.7,16.0,48,37,28,0.00,40.00,17,-94,35,0.00
2013-3-16,44.0,35.0,29.0,32.0,24.6,20.0,83,66,45,0.00,40.00,12,-24,25,0.00
2013-3-17,36.0,28.9,17.0,24.0,18.0,9.0,88,64,40,0.00,40.00,14,6,27,0.00
2013-3-18,27.0,20.2,13.0,13.0,8.5,2.0,72,60,46,0.00,40.00,13,-8,30,0.00
2013-3-19,34.0,24.8,13.0,11.0,0.0,-7.0,70,36,20,0.00,40.00,17,-13,36,0.00
2013-3-20,44.0,30.3,13.0,22.0,9.9,-6.0,73,43,29,0.00,40.00,19,6,38,0.00
2013-3-21,39.0,29.3,19.0,27.0,18.3,8.0,82,63,48,0.00,40.00,17,7,36,0.00
2013-3-22,33.0,20.0,13.0,19.0,11.3,5.0,95,71,35,0.00,40.00,11,4,21,0.00
2013-3-23,14.0,8.0,0.0,11.0,5.2,-3.0,95,88,74,0.00,40.00,7,4,15,0.00
2013-3-24,18.0,7.1,1.0,6.0,0.8,-4.0,87,75,58,0.00,40.00,12,4,22,0.00
2013-3-25,28.0,13.9,3.0,10.0,2.4,-3.0,81,61,37,0.00,40.00,12,5,24,0.00
2013-3-26,39.0,27.6,14.0,21.0,13.6,1.0,71,55,39,0.00,40.00,12,5,35,0.00
2013-3-27,48.0,33.7,22.0,28.0,21.2,17.0,92,63,34,0.00,40.00,10,-24,20,0.00
2013-3-28,50.0,36.9,29.0,27.0,21.0,15.0,76,53,33,0.00,40.00,9,-10,16,0.00
2013-3-29,47.0,37.0,31.0,27.0,24.3,21.0,79,60,40,0.00,40.00,13,6,29,0.00
2013-3-30,47.0,36.5,29.0,28.0,23.4,-99.9,94,62,38,0.00,40.00,12,5,29,0.00
2013-3-31,50.0,37.9,24.0,28.0,14.3,8.0,96,43,21,0.00,40.00,14,6,31,0.00
2013-4-1,44.0,31.8,24.0,29.0,23.4,16.0,95,73,43,0.00,40.00,6,-26,14,0.00
2013-4-2,34.0,29.2,26.0,30.0,27.2,25.0,95,92,82,0.00,40.00,7,3,12,0.00
2013-4-3,46.0,35.3,22.0,26.0,21.8,18.0,94,61,33,0.00,40.00,11,-10,17,0.00
2013-4-4,51.0,41.3,31.0,21.0,19.1,16.0,61,42,26,0.00,40.00,12,-8,24,0.00
2013-4-5,53.0,43.1,31.0,30.0,19.3,14.0,93,40,28,0.00,40.00,20,6,42,0.00
2013-4-6,47.0,36.3,29.0,26.0,17.9,14.0,72,48,31,0.00,40.00,16,5,30,0.00
2013-4-7,42.0,35.1,29.0,27.0,21.1,17.0,88,57,39,0.00,40.00,13,6,30,0.00
2013-4-8,47.0,36.0,22.0,28.0,22.0,16.0,94,59,37,0.00,40.00,10,-38,17,0.00
2013-4-9,21.0,8.7,-1.0,20.0,5.1,-6.0,94,84,74,0.00,40.00,6,3,11,0.00
2013-4-10,29.0,13.3,-3.0,16.0,6.2,-7.0,87,73,51,0.00,40.00,19,4,37,0.00
2013-4-11,37.0,27.3,19.0,25.0,15.8,7.0,68,61,52,0.00,40.00,21,11,39,0.00
2013-4-12,42.0,33.3,25.0,25.0,20.5,14.0,94,62,32,0.00,40.00,12,5,31,0.00
2013-4-13,46.0,36.9,26.0,30.0,14.8,9.0,92,41,28,0.00,40.00,17,8,39,0.00
2013-4-14,32.0,22.5,16.0,30.0,12.0,2.0,94,66,37,0.00,40.00,11,6,27,0.00
2013-4-15,24.0,19.0,15.0,22.0,16.1,12.0,92,87,69,0.00,40.00,9,-11,17,0.00
2013-4-16,26.0,18.3,13.0,20.0,15.7,11.0,92,89,79,0.00,40.00,7,3,15,0.00
2013-4-17,24.0,14.5,4.0,19.0,11.3,0.0,92,86,74,0.00,40.00,6,2,9,0.00
2013-4-18,25.0,12.5,2.0,6.0,1.2,-3.0,85,61,41,0.00,40.00,14,-22,32,0.00
2013-4-19,39.0,25.6,15.0,17.0,10.6,3.0,62,53,38,0.00,40.00,16,-62,39,0.00
2013-4-20,41.0,32.2,26.0,25.0,20.4,16.0,75,61,43,0.00,40.00,12,-62,24,0.00
2013-4-21,45.0,34.3,28.0,23.0,18.4,15.0,79,53,33,0.00,40.00,11,5,22,0.00
2013-4-22,37.0,23.7,10.0,28.0,19.1,7.0,93,82,54,0.00,40.00,7,3,17,0.00
2013-4-23,28.0,15.7,7.0,17.0,9.2,4.0,88,75,58,0.00,40.00,7,3,13,0.00
2013-4-24,39.0,26.2,12.0,14.0,8.6,3.0,76,48,31,0.00,40.00,16,-36,32,0.00
2013-4-25,52.0,38.7,26.0,15.0,9.9,3.0,47,30,21,0.00,40.00,13,-9,24,0.00
2013-4-26,51.0,41.0,31.0,19.0,15.7,11.0,47,36,26,0.00,40.00,8,-10,16,0.00
2013-4-27,55.0,44.9,34.0,21.0,16.2,11.0,42,31,24,0.00,40.00,10,6,24,0.00
2013-4-28,58.0,48.9,41.0,26.0,20.3,14.0,42,32,27,0.00,40.00,13,6,30,0.00
2013-4-29,60.0,48.6,36.0,32.0,25.6,20.0,76,43,25,0.00,40.00,10,4,35,0.00
2013-4-30,49.0,40.8,29.0,35.0,27.8,19.0,95,63,32,0.00,40.00,10,4,21,0.00
2013-5-1,29.0,20.1,10.0,28.0,17.2,6.0,95,88,75,0.00,40.00,0,0,0,0.00
2013-5-2,33.0,20.2,2.0,21.0,11.8,-1.0,88,70,48,0.00,40.00,10,-28,16,0.00
2013-5-3,47.0,35.9,25.0,23.0,17.2,10.0,69,47,28,0.00,40.00,9,-37,21,0.00
2013-5-4,43.0,34.1,25.0,29.0,22.5,17.0,85,64,39,0.00,40.00,8,3,13,0.00
2013-5-5,46.0,34.5,24.0,33.0,25.2,19.0,93,70,44,0.00,40.00,6,-26,13,0.00
2013-5-6,51.0,41.0,32.0,34.0,27.7,22.0,93,60,40,0.00,40.00,7,-11,12,0.00
2013-5-7,54.0,42.1,35.0,34.0,27.5,24.0,92,58,31,0.00,40.00,11,5,27,0.00
2013-5-8,39.0,34.7,32.0,34.0,30.5,25.0,95,84,64,0.00,40.00,9,5,17,0.00
2013-5-9,43.0,34.9,32.0,38.0,31.5,28.0,95,87,58,0.00,40.00,7,4,15,0.00
2013-5-10,50.0,38.9,29.0,32.0,26.0,-99.9,90,64,41,0.00,40.00,12,4,21,0.00
2013-5-11,53.0,41.1,31.0,36.0,28.7,-99.9,86,63,37,0.00,40.00,13,4,22,0.00
2013-5-12,61.0,49.9,37.0,30.0,26.7,24.0,76,41,28,0.00,40.00,14,-8,24,0.00
2013-5-13,62.0,53.9,47.0,32.0,28.9,26.0,43,37,31,0.00,40.00,10,-51,22,0.00
2013-6-12,74.0,63.1,49.0,37.0,30.2,19.0,36,29,24,0.00,40.00,11,4,25,0.00
2013-6-13,78.0,63.4,50.0,45.0,36.9,31.0,63,39,23,0.00,40.00,11,-27,29,0.00
2013-6-14,74.0,61.6,50.0,40.0,35.6,32.0,62,38,24,0.00,40.00,9,4,21,0.00
2013-6-15,65.0,55.0,42.0,43.0,40.0,35.0,91,58,43,0.00,40.00,7,3,14,0.00
2013-6-16,64.0,55.7,48.0,42.0,33.2,28.0,73,43,32,0.00,40.00,16,-40,26,0.00
2013-6-17,67.0,55.7,46.0,46.0,37.0,27.0,79,50,32,0.00,40.00,19,4,30,0.00
2013-6-18,68.0,56.2,46.0,49.0,41.8,38.0,81,59,38,0.00,40.00,6,3,13,0.00
2013-6-19,76.0,62.2,44.0,43.0,31.5,17.0,91,39,15,0.00,40.00,11,-10,19,0.00
2013-6-20,70.0,61.4,52.0,33.0,21.4,12.0,26,21,17,0.00,40.00,9,5,19,0.00
2013-6-22,71.0,63.4,51.0,45.0,35.9,27.0,44,36,28,0.00,40.00,11,-40,20,0.00
2013-6-23,66.0,56.1,44.0,47.0,35.9,23.0,61,47,35,0.00,40.00,9,-11,16,0.00
2013-6-24,72.0,59.7,45.0,38.0,31.7,25.0,78,38,23,0.00,40.00,10,4,21,0.00
2013-6-25,71.0,62.1,53.0,40.0,33.1,26.0,38,33,29,0.00,40.00,12,5,22,0.00
2013-6-26,79.0,67.6,53.0,43.0,37.3,30.0,42,33,26,0.00,40.00,10,4,21,0.00
2013-6-27,79.0,67.2,60.0,43.0,38.3,34.0,48,34,27,0.00,40.00,12,4,20,0.00
2013-6-28,81.0,66.0,50.0,53.0,45.4,35.0,91,50,28,0.00,40.00,9,4,19,0.00
2013-6-29,72.0,58.0,49.0,54.0,46.0,42.0,89,65,39,0.00,40.00,10,4,16,0.00
2013-6-30,68.0,55.5,49.0,52.0,47.7,42.0,93,76,41,0.00,40.00,7,3,16,0.00
2013-7-1,65.0,53.9,46.0,51.0,44.6,36.0,93,72,40,0.00,40.00,10,4,17,0.00
2013-7-2,65.0,55.0,44.0,49.0,41.4,35.0,92,62,38,0.00,40.00,10,4,21,0.00
2013-7-3,72.0,58.9,47.0,46.0,40.9,29.0,81,53,36,0.00,40.00,7,4,18,0.00
2013-7-4,71.0,59.5,53.0,54.0,41.3,36.0,78,52,33,0.00,40.00,9,5,16,0.00
2013-7-5,68.0,59.3,51.0,53.0,44.8,38.0,89,59,43,0.00,40.00,11,4,22,0.00
2013-7-6,71.0,60.1,50.0,45.0,43.3,41.0,79,55,36,0.00,40.00,12,5,27,0.00
2013-7-7,73.0,62.7,51.0,49.0,43.6,40.0,84,51,32,0.00,40.00,10,4,20,0.00
2013-7-8,74.0,64.4,56.0,46.0,41.3,36.0,56,43,30,0.00,40.00,13,-29,26,0.00
2013-7-9,76.0,66.1,56.0,42.0,38.4,36.0,47,36,27,0.00,40.00,11,-37,22,0.00
2013-7-10,75.0,62.9,50.0,52.0,39.4,-99.9,60,45,37,0.00,40.00,9,-74,21,0.00
2013-7-11,80.0,68.2,56.0,50.0,44.6,42.0,62,44,29,0.00,40.00,11,4,21,0.00
2013-7-12,73.0,60.3,54.0,56.0,47.1,42.0,92,64,41,0.00,40.00,10,-10,22,0.00
2013-7-13,74.0,60.4,52.0,54.0,46.9,42.0,91,63,36,0.00,40.00,9,-89,17,0.00
2013-7-14,67.0,56.0,51.0,54.0,49.1,42.0,94,78,49,0.00,40.00,7,4,12,0.00
2013-7-15,64.0,54.3,49.0,55.0,50.6,47.0,94,87,66,0.00,40.00,9,3,16,0.00
2013-7-16,67.0,56.6,44.0,48.0,42.8,40.0,92,63,37,0.00,40.00,7,4,14,0.00
2013-7-17,74.0,61.9,49.0,49.0,45.2,41.0,79,55,40,0.00,40.00,7,3,15,0.00
2013-7-18,75.0,62.9,55.0,55.0,46.5,42.0,81,56,37,0.00,40.00,9,5,16,0.00
2013-7-19,64.0,59.3,54.0,53.0,49.8,46.0,88,71,51,0.00,40.00,6,3,13,0.00
2013-7-20,74.0,59.3,51.0,42.0,35.3,32.0,48,41,31,0.00,40.00,7,2,16,0.00
2013-7-21,78.0,69.8,62.0,45.0,37.8,30.0,48,31,19,0.00,40.00,10,4,21,0.00
2013-7-22,80.0,68.2,59.0,44.0,33.7,28.0,49,29,16,0.00,40.00,12,5,25,0.00
2013-7-23,79.0,64.8,55.0,52.0,37.1,22.0,87,39,19,0.00,40.00,7,4,16,0.00
2013-7-24,70.0,58.0,50.0,53.0,47.8,39.0,89,70,46,0.00,40.00,11,4,21,0.00
2013-7-25,64.0,53.8,48.0,49.0,44.5,40.0,93,72,44,0.00,40.00,12,-27,21,0.00
2013-7-26,67.0,55.4,47.0,54.0,44.4,37.0,85,67,42,0.00,40.00,6,3,12,0.00
2013-7-27,72.0,58.0,50.0,52.0,43.1,34.0,93,61,31,0.00,40.00,8,4,22,0.00
2013-7-28,62.0,54.3,51.0,51.0,49.2,42.0,91,84,54,0.00,40.00,4,2,10,0.00
2013-7-29,64.0,55.0,49.0,50.0,41.9,38.0,90,63,39,0.00,40.00,8,-60,19,0.00
2013-7-30,71.0,58.2,49.0,42.0,39.7,37.0,74,51,34,0.00,40.00,16,-39,27,0.00
2013-7-31,72.0,61.4,52.0,46.0,40.2,36.0,72,46,26,0.00,40.00,9,-26,13,0.00
2013-8-1,74.0,60.0,51.0,45.0,41.3,37.0,76,53,29,0.00,40.00,7,-64,16,0.00
2013-8-2,76.0,64.6,57.0,44.0,41.6,38.0,56,43,28,0.00,40.00,12,-8,24,0.00
2013-8-3,76.0,60.9,48.0,53.0,44.3,39.0,93,57,35,0.00,40.00,11,-101,19,0.00
2013-8-4,75.0,60.9,49.0,50.0,39.7,34.0,87,48,23,0.00,40.00,7,-22,17,0.00
2013-8-5,70.0,60.4,53.0,50.0,40.8,37.0,88,50,33,0.00,40.00,9,-13,20,0.00
2013-8-6,73.0,61.5,55.0,42.0,36.2,32.0,61,39,24,0.00,40.00,18,6,32,0.00
2013-8-7,64.0,55.2,47.0,46.0,38.1,30.0,84,53,38,0.00,40.00,9,3,18,0.00
2013-8-8,65.0,54.3,48.0,50.0,39.5,30.0,79,57,42,0.00,40.00,7,3,15,0.00
2013-8-9,54.0,49.5,44.0,48.0,42.6,36.0,88,77,59,0.00,40.00,7,-40,15,0.00
2013-8-10,70.0,56.8,47.0,52.0,38.7,32.0,79,53,24,0.00,40.00,10,-58,19,0.00
2013-8-11,65.0,55.2,49.0,50.0,40.5,35.0,79,58,39,0.00,40.00,6,3,12,0.00